[[{"header":{"parameterUnit":"m.s-1","parameterCategory":1,"la1":30.2992,"la2":30.254,"lo1":-89.0895,"lo2":-89.0443,"dy":0.0025,"dx":0.0025,"nx":19,"ny":19,"refTime":"2026-05-04T09:00:00:Z","depth":0,"parameterNumber":2,"parameterNumberName":"U-component_of_WINDS"},"data":[0,0,0,0.5011,0.501,0.4971,0.4971,0.4933,0.4933,0,0,0,0,0,0,0,0,0,0,0,0.5031,0.5031,0.5011,0.501,0.4971,0.4971,0.4933,0.4933,0,0,0,0,0,0,0,0,0,0,0,0.5031,0.5031,0.5031,0.501,0.4971,0.4971,0.4934,0.4958,0,0,0,0,0,0,0,0,0,0,0.4994,0.5022,0.5031,0.5031,0.501,0.4971,0.4971,0.4959,0.4957,0.4957,0,0.4961,0,0.4946,0.4932,0.4932,0,0,0,0.5003,0.5024,0.5005,0.5031,0.5009,0.4971,0.4987,0.4958,0.4955,0.4953,0.496,0.4958,0.4946,0.4931,0.4931,0.4956,0.4957,0,0,0.5005,0.5029,0.5007,0.5004,0.5013,0.4988,0.4986,0.4956,0.4964,0.496,0.4957,0.4945,0.4931,0.4931,0.4956,0.4956,0,0,0,0.5016,0.5031,0.5012,0.5006,0.4998,0.4987,0.4984,0.4965,0.4957,0.4956,0.4945,0.4931,0.4931,0.4955,0.4956,0.5,0,0,0,0.5017,0.5037,0.5014,0.5028,0.4999,0.4982,0.4995,0.4959,0.4955,0.4945,0.4931,0.4931,0.4955,0.4956,0.4998,0.5017,0,0,0,0.5031,0.5038,0.5036,0.5029,0.5014,0.4981,0.4972,0.4958,0.4948,0.4932,0.4931,0.4954,0.4955,0.4996,0.5014,0.5029,0,0,0,0.5052,0.5077,0.5037,0.506,0.5014,0.501,0.4972,0.4967,0.4958,0.4931,0.4955,0.4956,0.4995,0.5011,0.5027,0.5046,0.5056,0,0,0.5097,0.5083,0.5095,0.5058,0.5067,0.5014,0.5028,0.4997,0.4974,0.4963,0.4963,0.4999,0.5013,0.5029,0.5108,0.5116,0,0,0,0.5117,0.5126,0.5123,0.5115,0.5092,0.5073,0.5037,0.5025,0.5015,0.4974,0.5008,0.5016,0.5024,0.5032,0.5039,0.5043,0.4961,0.4961,0.4961,0.5215,0.5183,0.5199,0.5162,0.5155,0.5116,0.5107,0.5083,0.5054,0.5063,0.5059,0.5111,0.5121,0.5127,0.5131,0.5067,0.5067,0.5068,0.5068,0.5277,0.5283,0.5241,0.5242,0.5207,0.5207,0.5169,0.5148,0.5141,0.5112,0.5117,0.5087,0.5137,0.5139,0.5071,0.507,0.507,0.5069,0.5069,0.5336,0.5334,0.5318,0.5302,0.5293,0.5253,0.5248,0.5217,0.5187,0.5192,0.5184,0.5183,0.5177,0.519,0.5191,0.5191,0.5191,0.5191,0.5191,0.5404,0.5385,0.5386,0.5361,0.5351,0.5333,0.5292,0.5281,0.5259,0.5236,0.5236,0.5204,0.5148,0.5134,0.5194,0.5193,0.5193,0.5193,0.5193,0.5477,0.5455,0.5456,0.5445,0.5412,0.5403,0.5363,0.5341,0.5326,0.5324,0.529,0.5254,0.5238,0.5232,0.522,0.5298,0.5298,0.5298,0.5298,0.5527,0.5515,0.5507,0.5492,0.5473,0.5435,0.5433,0.5401,0.5364,0.5353,0.5337,0.5318,0.5314,0.53,0.5292,0.5281,0.5373,0.5373,0.5373,0.5569,0.5554,0.556,0.5524,0.5495,0.547,0.5467,0.5449,0.5402,0.5375,0.5342,0.5339,0.5309,0.5301,0.5274,0.5263,0.5241,0,0]},{"header":{"parameterUnit":"m.s-1","parameterCategory":1,"la1":30.2992,"la2":30.254,"lo1":-89.0895,"lo2":-89.0443,"dy":0.0025,"dx":0.0025,"nx":19,"ny":19,"refTime":"2026-05-04T09:00:00:Z","depth":0,"parameterNumber":3,"parameterNumberName":"V-component_of_WINDS"},"data":[0,0,0,6.029,6.0292,6.0373,6.0373,6.0478,6.0479,0,0,0,0,0,0,0,0,0,0,0,6.0271,6.0272,6.029,6.0292,6.0373,6.0373,6.0478,6.0479,0,0,0,0,0,0,0,0,0,0,0,6.027,6.0272,6.0273,6.0293,6.0373,6.0373,6.0478,6.0416,0,0,0,0,0,0,0,0,0,0,6.0337,6.0324,6.0271,6.0273,6.0293,6.0372,6.0373,6.0413,6.042,6.0444,0,6.0469,0,6.0476,6.0487,6.0487,0,0,0,6.0288,6.0318,6.0336,6.0273,6.0294,6.0372,6.0335,6.0416,6.0424,6.0453,6.0471,6.0474,6.0478,6.0487,6.0488,6.0646,6.0646,0,0,6.0284,6.0287,6.0331,6.0342,6.0332,6.0333,6.0338,6.0421,6.0439,6.0471,6.0477,6.048,6.0488,6.0489,6.0645,6.0646,0,0,0,6.0274,6.0284,6.03,6.0337,6.0352,6.0335,6.0341,6.0436,6.0441,6.0478,6.0481,6.0489,6.049,6.0644,6.0645,6.0694,0,0,0,6.0271,6.0278,6.0298,6.0301,6.035,6.0395,6.0354,6.0435,6.0444,6.048,6.0489,6.0491,6.0643,6.0645,6.069,6.0716,0,0,0,6.0264,6.0278,6.0291,6.0301,6.0336,6.0394,6.0404,6.0437,6.0446,6.0487,6.0492,6.0642,6.0644,6.0687,6.0711,6.0757,0,0,0,6.0257,6.0333,6.0292,6.0377,6.0335,6.0424,6.0403,6.0469,6.051,6.0489,6.0643,6.0645,6.0686,6.0707,6.0754,6.0796,6.0815,0,0,6.0355,6.0345,6.0395,6.036,6.0458,6.0412,6.0515,6.0549,6.0549,6.0612,6.0616,6.0691,6.071,6.0756,6.0919,6.0933,0,0,0,6.0427,6.0463,6.0488,6.0528,6.0556,6.0581,6.0599,6.0611,6.0665,6.0583,6.0721,6.0732,6.0759,6.0779,6.0792,6.0813,6.0655,6.0655,6.0654,6.057,6.0566,6.0648,6.0653,6.0692,6.0709,6.0738,6.0757,6.0742,6.0774,6.0793,6.0892,6.0916,6.0925,6.0948,6.0816,6.0816,6.0817,6.0817,6.0711,6.076,6.0738,6.0809,6.0804,6.0862,6.088,6.0867,6.0919,6.0878,6.0902,6.0857,6.0942,6.0961,6.082,6.082,6.0819,6.0819,6.0819,6.0804,6.0826,6.084,6.0896,6.0939,6.094,6.0991,6.0985,6.0978,6.1002,6.1019,6.1018,6.1015,6.1011,6.1011,6.1011,6.1012,6.1012,6.1012,6.0894,6.0908,6.0952,6.0987,6.1011,6.104,6.1056,6.1078,6.1101,6.1091,6.1091,6.1071,6.0952,6.0921,6.1017,6.1016,6.1016,6.1015,6.1015,6.1037,6.1003,6.1072,6.1096,6.1135,6.1176,6.1166,6.1211,6.1228,6.1253,6.1228,6.1141,6.113,6.112,6.1094,6.123,6.123,6.123,6.123,6.1114,6.1108,6.1176,6.1213,6.1249,6.1247,6.1322,6.1333,6.134,6.135,6.1329,6.1295,6.1285,6.128,6.1266,6.1242,6.1412,6.1412,6.1413,6.1201,6.1198,6.1265,6.1272,6.1301,6.1325,6.1395,6.1436,6.1436,6.142,6.1356,6.1349,6.1293,6.1276,6.1258,6.1237,6.1193,0,0]}]]